Tracking 29493 objects as of 8-Sep-2024
HD Live streaming from Space Station
objects crossing your sky now

FENGYUN 1C DEB

Track FENGYUN 1C DEB now!
10-day predictions


NORAD ID: 35167
Int'l Code: 1999-025DMX
Perigee: 633.5 km
Apogee: 980.2 km
Inclination: 98.4 °
Period: 100.9 minutes
Semi major axis: 7177 km
RCS: 0.0088 m2 (small)
Launch date: May 10, 1999
Source: People's Republic of China (PRC)
Launch site: Taiyaun Space Center, China (TSC)

Note: This is SATELLITE DEBRIS
Your satellite tracking list
Your tracking list is empty




NASA's NSSDC Master Catalog

Two Line Element Set (TLE):
1 35167U 99025DMX 24250.80603307  .00006227  00000-0  18643-2 0  9998
2 35167  98.4309 251.7344 0241541 128.5000 233.8114 14.27623126634195
Source of the keplerian elements: AFSPC